owner,sensor,date,latitude,longitude,vertical_datum,sea_water_practical_salinity,qcFlag 
TABS,ioos:station:wmo:42048:1,2016-07-01T00:00:00Z,27.9396,-96.8429,2.0,29.5589,11111222 
TABS,ioos:station:wmo:42048:1,2016-07-01T00:30:00Z,27.9396,-96.8429,2.0,29.5574,11111222 
TABS,ioos:station:wmo:42048:1,2016-07-01T01:00:00Z,27.9396,-96.8429,2.0,29.6042,11111222 
TABS,ioos:station:wmo:42048:1,2016-07-01T01:30:00Z,27.9396,-96.8429,2.0,29.5959,11111222 
TABS,ioos:station:wmo:42048:1,2016-07-01T02:00:00Z,27.9396,-96.8429,2.0,29.5535,11111222 
TABS,ioos:station:wmo:42048:1,2016-07-01T02:30:00Z,27.9396,-96.8429,2.0,29.5132,11111222 
TABS,ioos:station:wmo:42048:1,2016-07-01T03:00:00Z,27.9396,-96.8429,2.0,29.4325,11111222 
TABS,ioos:station:wmo:42048:1,2016-07-01T03:30:00Z,27.9396,-96.8429,2.0,29.3603,11111222 
TABS,ioos:station:wmo:42048:1,2016-07-01T04:00:00Z,27.9396,-96.8429,2.0,29.2799,11111222 
TABS,ioos:station:wmo:42048:1,2016-07-01T04:30:00Z,27.9396,-96.8429,2.0,29.1732,11111222 
TABS,ioos:station:wmo:42048:1,2016-07-01T05:00:00Z,27.9396,-96.8429,2.0,29.1258,11111222 
TABS,ioos:station:wmo:42048:1,2016-07-01T05:30:00Z,27.9396,-96.8429,2.0,29.0393,11111222 
TABS,ioos:station:wmo:42048:1,2016-07-01T06:00:00Z,27.9396,-96.8429,2.0,28.9873,11111222 
TABS,ioos:station:wmo:42048:1,2016-07-02T21:30:00Z,27.9396,-96.8429,2.0,31.1279,11111222 
TABS,ioos:station:wmo:42048:1,2016-07-02T22:00:00Z,27.9396,-96.8429,2.0,31.1781,11111222 
TABS,ioos:station:wmo:42048:1,2016-07-02T22:30:00Z,27.9396,-96.8429,2.0,31.1974,11111222 
TABS,ioos:station:wmo:42048:1,2016-07-02T23:00:00Z,27.9396,-96.8429,2.0,31.2153,11111222 
TABS,ioos:station:wmo:42048:1,2016-07-02T23:30:00Z,27.9396,-96.8429,2.0,31.2266,11111222 
TABS,ioos:station:wmo:42048:1,2016-07-03T00:00:00Z,27.9396,-96.8429,2.0,31.2257,11111222 
TABS,ioos:station:wmo:42048:1,2016-07-03T00:30:00Z,27.9396,-96.8429,2.0,31.2278,11111222 
TABS,ioos:station:wmo:42048:1,2016-07-03T01:00:00Z,27.9396,-96.8429,2.0,31.2463,11111222 
TABS,ioos:station:wmo:42048:1,2016-07-03T01:30:00Z,27.9396,-96.8429,2.0,31.2626,11111222 
TABS,ioos:station:wmo:42048:1,2016-07-03T02:00:00Z,27.9396,-96.8429,2.0,31.2928,11111222 
TABS,ioos:station:wmo:42048:1,2016-07-03T02:30:00Z,27.9396,-96.8429,2.0,31.32,11111222 
TABS,ioos:station:wmo:42048:1,2016-07-03T03:00:00Z,27.9396,-96.8429,2.0,31.3055,11111222 
TABS,ioos:station:wmo:42048:1,2016-07-03T03:30:00Z,27.9396,-96.8429,2.0,31.334,11111222 
TABS,ioos:station:wmo:42048:1,2016-07-03T04:00:00Z,27.9396,-96.8429,2.0,31.3955,11111222 
TABS,ioos:station:wmo:42048:1,2016-07-03T04:30:00Z,27.9396,-96.8429,2.0,31.3021,11111222 
TABS,ioos:station:wmo:42048:1,2016-07-03T05:00:00Z,27.9396,-96.8429,2.0,31.2703,11111222 
TABS,ioos:station:wmo:42048:1,2016-07-03T05:30:00Z,27.9396,-96.8429,2.0,31.2296,11111222 
TABS,ioos:station:wmo:42048:1,2016-07-03T06:00:00Z,27.9396,-96.8429,2.0,31.1886,11111222 
TABS,ioos:station:wmo:42048:1,2016-07-03T06:30:00Z,27.9396,-96.8429,2.0,31.1406,11111222 
TABS,ioos:station:wmo:42048:1,2016-07-03T07:00:00Z,27.9396,-96.8429,2.0,31.0822,11111222 
TABS,ioos:station:wmo:42048:1,2016-07-03T07:30:00Z,27.9396,-96.8429,2.0,31.0367,11111222 
TABS,ioos:station:wmo:42048:1,2016-07-03T08:00:00Z,27.9396,-96.8429,2.0,31.0462,11111222 
TABS,ioos:station:wmo:42048:1,2016-07-03T08:30:00Z,27.9396,-96.8429,2.0,31.0476,11111222 
TABS,ioos:station:wmo:42048:1,2016-07-03T09:00:00Z,27.9396,-96.8429,2.0,31.0708,11111222 
TABS,ioos:station:wmo:42048:1,2016-07-03T09:30:00Z,27.9396,-96.8429,2.0,31.1533,11111222 
TABS,ioos:station:wmo:42048:1,2016-07-03T10:00:00Z,27.9396,-96.8429,2.0,31.22,11111222 
TABS,ioos:station:wmo:42048:1,2016-07-03T10:30:00Z,27.9396,-96.8429,2.0,31.2487,11111222 
TABS,ioos:station:wmo:42048:1,2016-07-03T11:00:00Z,27.9396,-96.8429,2.0,31.192,11111222 
TABS,ioos:station:wmo:42048:1,2016-07-03T11:30:00Z,27.9396,-96.8429,2.0,31.1015,11111222 
TABS,ioos:station:wmo:42048:1,2016-07-03T12:00:00Z,27.9396,-96.8429,2.0,31.0716,11111222 
TABS,ioos:station:wmo:42048:1,2016-07-03T12:30:00Z,27.9396,-96.8429,2.0,31.0976,11111222 
TABS,ioos:station:wmo:42048:1,2016-07-03T13:00:00Z,27.9396,-96.8429,2.0,31.1489,11111222 
TABS,ioos:station:wmo:42048:1,2016-07-03T13:30:00Z,27.9396,-96.8429,2.0,31.2032,11111222 
TABS,ioos:station:wmo:42048:1,2016-07-03T14:00:00Z,27.9396,-96.8429,2.0,31.3608,11111222 
TABS,ioos:station:wmo:42048:1,2016-07-03T14:30:00Z,27.9396,-96.8429,2.0,31.4532,11111222 
TABS,ioos:station:wmo:42048:1,2016-07-03T15:00:00Z,27.9396,-96.8429,2.0,31.6355,11111222 
TABS,ioos:station:wmo:42048:1,2016-07-03T15:30:00Z,27.9396,-96.8429,2.0,31.8098,11111222 
TABS,ioos:station:wmo:42048:1,2016-07-03T16:00:00Z,27.9396,-96.8429,2.0,31.9415,11111222 
TABS,ioos:station:wmo:42048:1,2016-07-03T16:30:00Z,27.9396,-96.8429,2.0,32.0024,11111222 
TABS,ioos:station:wmo:42048:1,2016-07-03T17:00:00Z,27.9396,-96.8429,2.0,32.0997,11111222 
TABS,ioos:station:wmo:42048:1,2016-07-03T17:30:00Z,27.9396,-96.8429,2.0,32.1881,11111222 
TABS,ioos:station:wmo:42048:1,2016-07-03T18:00:00Z,27.9396,-96.8429,2.0,32.3047,11111222 
TABS,ioos:station:wmo:42048:1,2016-07-03T18:30:00Z,27.9396,-96.8429,2.0,32.4363,11111222 
TABS,ioos:station:wmo:42048:1,2016-07-03T19:00:00Z,27.9396,-96.8429,2.0,32.4723,11111222 
TABS,ioos:station:wmo:42048:1,2016-07-03T19:30:00Z,27.9396,-96.8429,2.0,32.4953,11111222 
TABS,ioos:station:wmo:42048:1,2016-07-03T20:00:00Z,27.9396,-96.8429,2.0,32.5516,11111222 
TABS,ioos:station:wmo:42048:1,2016-07-03T20:30:00Z,27.9396,-96.8429,2.0,32.6058,11111222 
TABS,ioos:station:wmo:42048:1,2016-07-03T21:00:00Z,27.9396,-96.8429,2.0,32.6535,11111222 
TABS,ioos:station:wmo:42048:1,2016-07-03T21:30:00Z,27.9396,-96.8429,2.0,32.7105,11111222 
TABS,ioos:station:wmo:42048:1,2016-07-03T22:00:00Z,27.9396,-96.8429,2.0,32.7314,11111222 
TABS,ioos:station:wmo:42048:1,2016-07-03T22:30:00Z,27.9396,-96.8429,2.0,32.7643,11111222 
TABS,ioos:station:wmo:42048:1,2016-07-03T23:00:00Z,27.9396,-96.8429,2.0,32.7954,11111222 
TABS,ioos:station:wmo:42048:1,2016-07-03T23:30:00Z,27.9396,-96.8429,2.0,32.8268,11111222 
TABS,ioos:station:wmo:42048:1,2016-07-04T00:00:00Z,27.9396,-96.8429,2.0,32.8493,11111222 
TABS,ioos:station:wmo:42048:1,2016-07-04T00:30:00Z,27.9396,-96.8429,2.0,32.8733,11111222 
TABS,ioos:station:wmo:42048:1,2016-07-04T01:00:00Z,27.9396,-96.8429,2.0,32.9021,11111222 
TABS,ioos:station:wmo:42048:1,2016-07-04T01:30:00Z,27.9396,-96.8429,2.0,32.9331,11111222 
TABS,ioos:station:wmo:42048:1,2016-07-04T02:00:00Z,27.9396,-96.8429,2.0,33.0144,11111222 
TABS,ioos:station:wmo:42048:1,2016-07-04T02:30:00Z,27.9396,-96.8429,2.0,33.1091,11111222 
TABS,ioos:station:wmo:42048:1,2016-07-04T03:00:00Z,27.9396,-96.8429,2.0,33.162,11111222 
TABS,ioos:station:wmo:42048:1,2016-07-04T03:30:00Z,27.9396,-96.8429,2.0,33.2522,11111222 
TABS,ioos:station:wmo:42048:1,2016-07-04T04:00:00Z,27.9396,-96.8429,2.0,33.2943,11111222 
TABS,ioos:station:wmo:42048:1,2016-07-04T04:30:00Z,27.9396,-96.8429,2.0,33.4875,11111222 
TABS,ioos:station:wmo:42048:1,2016-07-04T05:00:00Z,27.9396,-96.8429,2.0,33.5904,11111222 
TABS,ioos:station:wmo:42048:1,2016-07-04T05:30:00Z,27.9396,-96.8429,2.0,33.5514,11111222 
TABS,ioos:station:wmo:42048:1,2016-07-04T06:00:00Z,27.9396,-96.8429,2.0,33.5362,11111222 
TABS,ioos:station:wmo:42048:1,2016-07-04T06:30:00Z,27.9396,-96.8429,2.0,33.5264,11111222 
TABS,ioos:station:wmo:42048:1,2016-07-04T07:00:00Z,27.9396,-96.8429,2.0,33.5516,11111222 
TABS,ioos:station:wmo:42048:1,2016-07-04T07:30:00Z,27.9396,-96.8429,2.0,33.7042,11111222 
TABS,ioos:station:wmo:42048:1,2016-07-04T08:00:00Z,27.9396,-96.8429,2.0,33.916,11111222 
TABS,ioos:station:wmo:42048:1,2016-07-04T08:30:00Z,27.9396,-96.8429,2.0,33.8911,11111222 
TABS,ioos:station:wmo:42048:1,2016-07-04T09:00:00Z,27.9396,-96.8429,2.0,33.922,11111222 
TABS,ioos:station:wmo:42048:1,2016-07-04T09:30:00Z,27.9396,-96.8429,2.0,33.9258,11111222 
TABS,ioos:station:wmo:42048:1,2016-07-04T10:00:00Z,27.9396,-96.8429,2.0,33.9325,11111222 
TABS,ioos:station:wmo:42048:1,2016-07-04T10:30:00Z,27.9396,-96.8429,2.0,33.9564,11111222 
TABS,ioos:station:wmo:42048:1,2016-07-04T11:00:00Z,27.9396,-96.8429,2.0,33.9706,11111222 
TABS,ioos:station:wmo:42048:1,2016-07-04T11:30:00Z,27.9396,-96.8429,2.0,34.0438,11111222 
TABS,ioos:station:wmo:42048:1,2016-07-04T12:00:00Z,27.9396,-96.8429,2.0,34.0983,11111222 
TABS,ioos:station:wmo:42048:1,2016-07-04T12:30:00Z,27.9396,-96.8429,2.0,34.0853,11111222 
TABS,ioos:station:wmo:42048:1,2016-07-04T13:00:00Z,27.9396,-96.8429,2.0,34.1064,11111222 
TABS,ioos:station:wmo:42048:1,2016-07-04T13:30:00Z,27.9396,-96.8429,2.0,34.0657,11111222 
TABS,ioos:station:wmo:42048:1,2016-07-04T14:00:00Z,27.9396,-96.8429,2.0,34.1371,11111222 
TABS,ioos:station:wmo:42048:1,2016-07-04T14:30:00Z,27.9396,-96.8429,2.0,34.0992,11111222 
TABS,ioos:station:wmo:42048:1,2016-07-04T15:00:00Z,27.9396,-96.8429,2.0,34.0772,11111222 
TABS,ioos:station:wmo:42048:1,2016-07-04T15:30:00Z,27.9396,-96.8429,2.0,34.0546,11111222 
TABS,ioos:station:wmo:42048:1,2016-07-04T16:00:00Z,27.9396,-96.8429,2.0,34.047,11111222 
TABS,ioos:station:wmo:42048:1,2016-07-04T16:30:00Z,27.9396,-96.8429,2.0,34.0457,11111222 
TABS,ioos:station:wmo:42048:1,2016-07-04T17:00:00Z,27.9396,-96.8429,2.0,34.049,11111222 
TABS,ioos:station:wmo:42048:1,2016-07-04T17:30:00Z,27.9396,-96.8429,2.0,34.0661,11111222 
TABS,ioos:station:wmo:42048:1,2016-07-04T18:00:00Z,27.9396,-96.8429,2.0,34.0859,11111222 
TABS,ioos:station:wmo:42048:1,2016-07-04T18:30:00Z,27.9396,-96.8429,2.0,34.1346,11111222 
TABS,ioos:station:wmo:42048:1,2016-07-04T19:00:00Z,27.9396,-96.8429,2.0,34.1358,11111222 
TABS,ioos:station:wmo:42048:1,2016-07-04T19:30:00Z,27.9396,-96.8429,2.0,34.1396,11111222 
TABS,ioos:station:wmo:42048:1,2016-07-04T20:00:00Z,27.9396,-96.8429,2.0,34.1742,11111222 
TABS,ioos:station:wmo:42048:1,2016-07-04T20:30:00Z,27.9396,-96.8429,2.0,34.1995,11111222 
TABS,ioos:station:wmo:42048:1,2016-07-04T21:00:00Z,27.9396,-96.8429,2.0,34.2378,11111222 
TABS,ioos:station:wmo:42048:1,2016-07-04T21:30:00Z,27.9396,-96.8429,2.0,34.2631,11111222 
TABS,ioos:station:wmo:42048:1,2016-07-04T22:00:00Z,27.9396,-96.8429,2.0,34.2669,11111222 
TABS,ioos:station:wmo:42048:1,2016-07-04T22:30:00Z,27.9396,-96.8429,2.0,34.2631,11111222 
TABS,ioos:station:wmo:42048:1,2016-07-04T23:00:00Z,27.9396,-96.8429,2.0,34.2746,11111222 
TABS,ioos:station:wmo:42048:1,2016-07-04T23:30:00Z,27.9396,-96.8429,2.0,34.3223,11111222 
TABS,ioos:station:wmo:42048:1,2016-07-05T00:00:00Z,27.9396,-96.8429,2.0,34.3435,11111222 
TABS,ioos:station:wmo:42048:1,2016-07-05T00:30:00Z,27.9396,-96.8429,2.0,34.3539,11111222 
TABS,ioos:station:wmo:42048:1,2016-07-05T01:00:00Z,27.9396,-96.8429,2.0,34.3804,11111222 
TABS,ioos:station:wmo:42048:1,2016-07-05T01:30:00Z,27.9396,-96.8429,2.0,34.3876,11111222 
TABS,ioos:station:wmo:42048:1,2016-07-05T02:00:00Z,27.9396,-96.8429,2.0,34.3935,11111222 
TABS,ioos:station:wmo:42048:1,2016-07-05T02:30:00Z,27.9396,-96.8429,2.0,34.3524,11111222 
TABS,ioos:station:wmo:42048:1,2016-07-05T03:00:00Z,27.9396,-96.8429,2.0,34.3459,11111222 
TABS,ioos:station:wmo:42048:1,2016-07-05T03:30:00Z,27.9396,-96.8429,2.0,34.4022,11111222 
TABS,ioos:station:wmo:42048:1,2016-07-05T04:00:00Z,27.9396,-96.8429,2.0,34.3994,11111222 
TABS,ioos:station:wmo:42048:1,2016-07-05T04:30:00Z,27.9396,-96.8429,2.0,34.41,11111222 
TABS,ioos:station:wmo:42048:1,2016-07-05T05:00:00Z,27.9396,-96.8429,2.0,34.4169,11111222 
TABS,ioos:station:wmo:42048:1,2016-07-05T05:30:00Z,27.9396,-96.8429,2.0,34.4259,11111222 
TABS,ioos:station:wmo:42048:1,2016-07-05T06:00:00Z,27.9396,-96.8429,2.0,34.4331,11111222 
TABS,ioos:station:wmo:42048:1,2016-07-05T06:30:00Z,27.9396,-96.8429,2.0,34.46,11111222 
TABS,ioos:station:wmo:42048:1,2016-07-05T07:00:00Z,27.9396,-96.8429,2.0,34.4756,11111222 
TABS,ioos:station:wmo:42048:1,2016-07-05T07:30:00Z,27.9396,-96.8429,2.0,34.4843,11111222 
TABS,ioos:station:wmo:42048:1,2016-07-05T08:00:00Z,27.9396,-96.8429,2.0,34.4822,11111222 
TABS,ioos:station:wmo:42048:1,2016-07-05T08:30:00Z,27.9396,-96.8429,2.0,34.4881,11111222 
TABS,ioos:station:wmo:42048:1,2016-07-05T09:00:00Z,27.9396,-96.8429,2.0,34.4914,11111222 
TABS,ioos:station:wmo:42048:1,2016-07-05T09:30:00Z,27.9396,-96.8429,2.0,34.4969,11111222 
TABS,ioos:station:wmo:42048:1,2016-07-05T10:00:00Z,27.9396,-96.8429,2.0,34.5005,11111222 
TABS,ioos:station:wmo:42048:1,2016-07-05T10:30:00Z,27.9396,-96.8429,2.0,34.5028,11111222 
TABS,ioos:station:wmo:42048:1,2016-07-05T11:00:00Z,27.9396,-96.8429,2.0,34.4915,11111222 
TABS,ioos:station:wmo:42048:1,2016-07-05T11:30:00Z,27.9396,-96.8429,2.0,34.4989,11111222 
TABS,ioos:station:wmo:42048:1,2016-07-05T12:00:00Z,27.9396,-96.8429,2.0,33.9854,11111222 
TABS,ioos:station:wmo:42048:1,2016-07-05T12:30:00Z,27.9396,-96.8429,2.0,33.9915,11111222 
TABS,ioos:station:wmo:42048:1,2016-07-05T13:00:00Z,27.9396,-96.8429,2.0,33.9544,11111222 
TABS,ioos:station:wmo:42048:1,2016-07-05T13:30:00Z,27.9396,-96.8429,2.0,33.8859,11111222 
TABS,ioos:station:wmo:42048:1,2016-07-05T14:00:00Z,27.9396,-96.8429,2.0,33.8371,11111222 
TABS,ioos:station:wmo:42048:1,2016-07-05T14:30:00Z,27.9396,-96.8429,2.0,33.8541,11111222 
TABS,ioos:station:wmo:42048:1,2016-07-05T15:00:00Z,27.9396,-96.8429,2.0,33.846,11111222 
TABS,ioos:station:wmo:42048:1,2016-07-05T15:30:00Z,27.9396,-96.8429,2.0,33.8326,11111222 
TABS,ioos:station:wmo:42048:1,2016-07-05T16:00:00Z,27.9396,-96.8429,2.0,33.8979,11111222 
TABS,ioos:station:wmo:42048:1,2016-07-05T16:30:00Z,27.9396,-96.8429,2.0,34.0078,11111222 
TABS,ioos:station:wmo:42048:1,2016-07-05T17:00:00Z,27.9396,-96.8429,2.0,34.0758,11111222 
TABS,ioos:station:wmo:42048:1,2016-07-05T17:30:00Z,27.9396,-96.8429,2.0,34.1171,11111222 
TABS,ioos:station:wmo:42048:1,2016-07-05T18:00:00Z,27.9396,-96.8429,2.0,34.1642,11111222 
TABS,ioos:station:wmo:42048:1,2016-07-05T18:30:00Z,27.9396,-96.8429,2.0,34.2517,11111222 
TABS,ioos:station:wmo:42048:1,2016-07-05T19:00:00Z,27.9396,-96.8429,2.0,34.3194,11111222 
TABS,ioos:station:wmo:42048:1,2016-07-05T19:30:00Z,27.9396,-96.8429,2.0,34.346,11111222 
TABS,ioos:station:wmo:42048:1,2016-07-05T20:00:00Z,27.9396,-96.8429,2.0,34.3467,11111222 
TABS,ioos:station:wmo:42048:1,2016-07-05T20:30:00Z,27.9396,-96.8429,2.0,34.4015,11111222 
TABS,ioos:station:wmo:42048:1,2016-07-05T21:00:00Z,27.9396,-96.8429,2.0,34.4744,11111222 
TABS,ioos:station:wmo:42048:1,2016-07-05T21:30:00Z,27.9396,-96.8429,2.0,34.5431,11111222 
TABS,ioos:station:wmo:42048:1,2016-07-05T22:00:00Z,27.9396,-96.8429,2.0,34.5814,11111222 
TABS,ioos:station:wmo:42048:1,2016-07-05T22:30:00Z,27.9396,-96.8429,2.0,34.6144,11111222 
TABS,ioos:station:wmo:42048:1,2016-07-05T23:00:00Z,27.9396,-96.8429,2.0,34.7001,11111222 
TABS,ioos:station:wmo:42048:1,2016-07-05T23:30:00Z,27.9396,-96.8429,2.0,34.6775,11111222 
TABS,ioos:station:wmo:42048:1,2016-07-06T00:00:00Z,27.9396,-96.8429,2.0,34.7283,11111222 
TABS,ioos:station:wmo:42048:1,2016-07-06T00:30:00Z,27.9396,-96.8429,2.0,34.713,11111222 
TABS,ioos:station:wmo:42048:1,2016-07-06T01:00:00Z,27.9396,-96.8429,2.0,34.7232,11111222 
TABS,ioos:station:wmo:42048:1,2016-07-06T01:30:00Z,27.9396,-96.8429,2.0,34.742,11111222 
TABS,ioos:station:wmo:42048:1,2016-07-06T02:00:00Z,27.9396,-96.8429,2.0,34.742,11111222 
TABS,ioos:station:wmo:42048:1,2016-07-06T02:30:00Z,27.9396,-96.8429,2.0,34.7518,11111222 
TABS,ioos:station:wmo:42048:1,2016-07-06T03:00:00Z,27.9396,-96.8429,2.0,34.7577,11111222 
TABS,ioos:station:wmo:42048:1,2016-07-06T03:30:00Z,27.9396,-96.8429,2.0,34.7635,11111222 
TABS,ioos:station:wmo:42048:1,2016-07-06T04:00:00Z,27.9396,-96.8429,2.0,34.7598,11111222 
TABS,ioos:station:wmo:42048:1,2016-07-06T04:30:00Z,27.9396,-96.8429,2.0,34.7674,11111222 
TABS,ioos:station:wmo:42048:1,2016-07-06T05:00:00Z,27.9396,-96.8429,2.0,34.774,11111222 
TABS,ioos:station:wmo:42048:1,2016-07-06T05:30:00Z,27.9396,-96.8429,2.0,34.7827,11111222 
TABS,ioos:station:wmo:42048:1,2016-07-06T06:00:00Z,27.9396,-96.8429,2.0,34.7906,11111222 
TABS,ioos:station:wmo:42048:1,2016-07-06T06:30:00Z,27.9396,-96.8429,2.0,34.8002,11111222 
TABS,ioos:station:wmo:42048:1,2016-07-06T07:00:00Z,27.9396,-96.8429,2.0,34.8111,11111222 
TABS,ioos:station:wmo:42048:1,2016-07-06T07:30:00Z,27.9396,-96.8429,2.0,34.8235,11111222 
TABS,ioos:station:wmo:42048:1,2016-07-06T08:00:00Z,27.9396,-96.8429,2.0,34.8409,11111222 
TABS,ioos:station:wmo:42048:1,2016-07-06T08:30:00Z,27.9396,-96.8429,2.0,34.8339,11111222 
TABS,ioos:station:wmo:42048:1,2016-07-06T09:00:00Z,27.9396,-96.8429,2.0,34.862,11111222 
TABS,ioos:station:wmo:42048:1,2016-07-06T09:30:00Z,27.9396,-96.8429,2.0,34.8746,11111222 
TABS,ioos:station:wmo:42048:1,2016-07-06T10:00:00Z,27.9396,-96.8429,2.0,34.8678,11111222 
TABS,ioos:station:wmo:42048:1,2016-07-06T10:30:00Z,27.9396,-96.8429,2.0,34.887,11111222 
TABS,ioos:station:wmo:42048:1,2016-07-06T11:00:00Z,27.9396,-96.8429,2.0,34.8943,11111222 
TABS,ioos:station:wmo:42048:1,2016-07-06T11:30:00Z,27.9396,-96.8429,2.0,34.8955,11111222 
TABS,ioos:station:wmo:42048:1,2016-07-06T12:00:00Z,27.9396,-96.8429,2.0,34.8915,11111222 
TABS,ioos:station:wmo:42048:1,2016-07-06T12:30:00Z,27.9396,-96.8429,2.0,34.9036,11111222 
TABS,ioos:station:wmo:42048:1,2016-07-06T13:00:00Z,27.9396,-96.8429,2.0,34.907,11111222 
TABS,ioos:station:wmo:42048:1,2016-07-06T13:30:00Z,27.9396,-96.8429,2.0,34.9021,11111222 
TABS,ioos:station:wmo:42048:1,2016-07-06T14:00:00Z,27.9396,-96.8429,2.0,34.5272,11111222 
TABS,ioos:station:wmo:42048:1,2016-07-06T14:30:00Z,27.9396,-96.8429,2.0,34.4738,11111222 
TABS,ioos:station:wmo:42048:1,2016-07-06T15:00:00Z,27.9396,-96.8429,2.0,34.4823,11111222 
TABS,ioos:station:wmo:42048:1,2016-07-06T15:30:00Z,27.9396,-96.8429,2.0,34.4628,11111222 
TABS,ioos:station:wmo:42048:1,2016-07-06T16:00:00Z,27.9396,-96.8429,2.0,34.442,11111222 
TABS,ioos:station:wmo:42048:1,2016-07-06T16:30:00Z,27.9396,-96.8429,2.0,34.371,11111222 
TABS,ioos:station:wmo:42048:1,2016-07-06T17:00:00Z,27.9396,-96.8429,2.0,34.3549,11111222 
TABS,ioos:station:wmo:42048:1,2016-07-06T17:30:00Z,27.9396,-96.8429,2.0,34.323,11111222 
TABS,ioos:station:wmo:42048:1,2016-07-06T18:00:00Z,27.9396,-96.8429,2.0,34.2914,11111222 
TABS,ioos:station:wmo:42048:1,2016-07-06T18:30:00Z,27.9396,-96.8429,2.0,34.2197,11111222 
TABS,ioos:station:wmo:42048:1,2016-07-06T19:00:00Z,27.9396,-96.8429,2.0,34.2177,11111222 
TABS,ioos:station:wmo:42048:1,2016-07-06T19:30:00Z,27.9396,-96.8429,2.0,34.2444,11111222 
TABS,ioos:station:wmo:42048:1,2016-07-06T20:00:00Z,27.9396,-96.8429,2.0,34.2754,11111222 
TABS,ioos:station:wmo:42048:1,2016-07-06T20:30:00Z,27.9396,-96.8429,2.0,34.3185,11111222 
TABS,ioos:station:wmo:42048:1,2016-07-06T21:00:00Z,27.9396,-96.8429,2.0,34.3659,11111222 
TABS,ioos:station:wmo:42048:1,2016-07-06T21:30:00Z,27.9396,-96.8429,2.0,34.4563,11111222 
TABS,ioos:station:wmo:42048:1,2016-07-06T22:00:00Z,27.9396,-96.8429,2.0,34.5307,11111222 
TABS,ioos:station:wmo:42048:1,2016-07-06T22:30:00Z,27.9396,-96.8429,2.0,34.604,11111222 
TABS,ioos:station:wmo:42048:1,2016-07-06T23:00:00Z,27.9396,-96.8429,2.0,34.6672,11111222 
TABS,ioos:station:wmo:42048:1,2016-07-06T23:30:00Z,27.9396,-96.8429,2.0,34.7242,11111222 
TABS,ioos:station:wmo:42048:1,2016-07-07T00:00:00Z,27.9396,-96.8429,2.0,34.7368,11111222 
TABS,ioos:station:wmo:42048:1,2016-07-07T00:30:00Z,27.9396,-96.8429,2.0,34.7805,11111222 
TABS,ioos:station:wmo:42048:1,2016-07-07T01:00:00Z,27.9396,-96.8429,2.0,34.8249,11111222 
TABS,ioos:station:wmo:42048:1,2016-07-07T01:30:00Z,27.9396,-96.8429,2.0,34.8829,11111222 
TABS,ioos:station:wmo:42048:1,2016-07-07T02:00:00Z,27.9396,-96.8429,2.0,34.9041,11111222 
TABS,ioos:station:wmo:42048:1,2016-07-07T02:30:00Z,27.9396,-96.8429,2.0,34.9312,11111222 
TABS,ioos:station:wmo:42048:1,2016-07-07T03:00:00Z,27.9396,-96.8429,2.0,34.9709,11111222 
TABS,ioos:station:wmo:42048:1,2016-07-07T03:30:00Z,27.9396,-96.8429,2.0,34.9915,11111222 
TABS,ioos:station:wmo:42048:1,2016-07-07T04:00:00Z,27.9396,-96.8429,2.0,35.0057,11111222 
TABS,ioos:station:wmo:42048:1,2016-07-07T04:30:00Z,27.9396,-96.8429,2.0,35.0,11111222 
TABS,ioos:station:wmo:42048:1,2016-07-07T05:00:00Z,27.9396,-96.8429,2.0,35.0144,11111222 
TABS,ioos:station:wmo:42048:1,2016-07-07T05:30:00Z,27.9396,-96.8429,2.0,35.0248,11111222 
TABS,ioos:station:wmo:42048:1,2016-07-07T06:00:00Z,27.9396,-96.8429,2.0,35.0277,11111222 
TABS,ioos:station:wmo:42048:1,2016-07-07T06:30:00Z,27.9396,-96.8429,2.0,35.0357,11111222 
TABS,ioos:station:wmo:42048:1,2016-07-07T07:00:00Z,27.9396,-96.8429,2.0,35.0477,11111222 
TABS,ioos:station:wmo:42048:1,2016-07-07T07:30:00Z,27.9396,-96.8429,2.0,35.049,11111222 
TABS,ioos:station:wmo:42048:1,2016-07-07T08:00:00Z,27.9396,-96.8429,2.0,35.0562,11111222 
TABS,ioos:station:wmo:42048:1,2016-07-07T08:30:00Z,27.9396,-96.8429,2.0,35.0556,11111222 
TABS,ioos:station:wmo:42048:1,2016-07-07T09:00:00Z,27.9396,-96.8429,2.0,35.069,11111222 
TABS,ioos:station:wmo:42048:1,2016-07-07T09:30:00Z,27.9396,-96.8429,2.0,35.0733,11111222 
TABS,ioos:station:wmo:42048:1,2016-07-07T10:00:00Z,27.9396,-96.8429,2.0,35.0777,11111222 
TABS,ioos:station:wmo:42048:1,2016-07-07T10:30:00Z,27.9396,-96.8429,2.0,35.083,11111222 
TABS,ioos:station:wmo:42048:1,2016-07-07T11:00:00Z,27.9396,-96.8429,2.0,35.0847,11111222 
TABS,ioos:station:wmo:42048:1,2016-07-07T11:30:00Z,27.9396,-96.8429,2.0,35.0897,11111222 
TABS,ioos:station:wmo:42048:1,2016-07-07T12:00:00Z,27.9396,-96.8429,2.0,35.1005,11111222 
TABS,ioos:station:wmo:42048:1,2016-07-07T12:30:00Z,27.9396,-96.8429,2.0,35.1041,11111222 
TABS,ioos:station:wmo:42048:1,2016-07-07T13:00:00Z,27.9396,-96.8429,2.0,35.1128,11111222 
TABS,ioos:station:wmo:42048:1,2016-07-07T13:30:00Z,27.9396,-96.8429,2.0,35.1118,11111222 
TABS,ioos:station:wmo:42048:1,2016-07-07T14:00:00Z,27.9396,-96.8429,2.0,35.1202,11111222 
TABS,ioos:station:wmo:42048:1,2016-07-07T14:30:00Z,27.9396,-96.8429,2.0,35.1268,11111222 
TABS,ioos:station:wmo:42048:1,2016-07-07T15:00:00Z,27.9396,-96.8429,2.0,35.1204,11111222 
TABS,ioos:station:wmo:42048:1,2016-07-07T15:30:00Z,27.9396,-96.8429,2.0,35.1325,11111222 
TABS,ioos:station:wmo:42048:1,2016-07-07T16:00:00Z,27.9396,-96.8429,2.0,35.1487,11111222 
TABS,ioos:station:wmo:42048:1,2016-07-07T16:30:00Z,27.9396,-96.8429,2.0,35.1761,11111222 
TABS,ioos:station:wmo:42048:1,2016-07-07T17:00:00Z,27.9396,-96.8429,2.0,35.1527,11111222 
TABS,ioos:station:wmo:42048:1,2016-07-07T17:30:00Z,27.9396,-96.8429,2.0,35.1602,11111222 
TABS,ioos:station:wmo:42048:1,2016-07-07T18:00:00Z,27.9396,-96.8429,2.0,34.9409,11111222 
TABS,ioos:station:wmo:42048:1,2016-07-07T18:30:00Z,27.9396,-96.8429,2.0,34.9028,11111222 
TABS,ioos:station:wmo:42048:1,2016-07-07T19:00:00Z,27.9396,-96.8429,2.0,34.9266,11111222 
TABS,ioos:station:wmo:42048:1,2016-07-07T19:30:00Z,27.9396,-96.8429,2.0,34.8381,11111222 
TABS,ioos:station:wmo:42048:1,2016-07-07T20:00:00Z,27.9396,-96.8429,2.0,34.8132,11111222 
TABS,ioos:station:wmo:42048:1,2016-07-07T20:30:00Z,27.9396,-96.8429,2.0,34.7623,11111222 
TABS,ioos:station:wmo:42048:1,2016-07-07T21:00:00Z,27.9396,-96.8429,2.0,34.8516,11111222 
TABS,ioos:station:wmo:42048:1,2016-07-07T21:30:00Z,27.9396,-96.8429,2.0,34.6956,11111222 
TABS,ioos:station:wmo:42048:1,2016-07-07T22:00:00Z,27.9396,-96.8429,2.0,34.7697,11111222 
TABS,ioos:station:wmo:42048:1,2016-07-07T22:30:00Z,27.9396,-96.8429,2.0,34.7079,11111222 
TABS,ioos:station:wmo:42048:1,2016-07-07T23:00:00Z,27.9396,-96.8429,2.0,34.763,11111222 
TABS,ioos:station:wmo:42048:1,2016-07-07T23:30:00Z,27.9396,-96.8429,2.0,34.7928,11111222 
TABS,ioos:station:wmo:42048:1,2016-07-08T00:00:00Z,27.9396,-96.8429,2.0,34.8617,11111222 
TABS,ioos:station:wmo:42048:1,2016-07-08T00:30:00Z,27.9396,-96.8429,2.0,34.9474,11111222 
TABS,ioos:station:wmo:42048:1,2016-07-08T01:00:00Z,27.9396,-96.8429,2.0,35.0611,11111222 
TABS,ioos:station:wmo:42048:1,2016-07-08T01:30:00Z,27.9396,-96.8429,2.0,35.1028,11111222 
TABS,ioos:station:wmo:42048:1,2016-07-08T02:00:00Z,27.9396,-96.8429,2.0,35.1343,11111222 
TABS,ioos:station:wmo:42048:1,2016-07-08T02:30:00Z,27.9396,-96.8429,2.0,35.1491,11111222 
TABS,ioos:station:wmo:42048:1,2016-07-08T03:00:00Z,27.9396,-96.8429,2.0,35.174,11111222 
TABS,ioos:station:wmo:42048:1,2016-07-08T03:30:00Z,27.9396,-96.8429,2.0,35.1884,11111222 